,,,PA_Meas_PMT16A,,PR_Meas_QMR101_102,,RH_Meas_QMH101,,SR_Meas_QMS101,,TA_Meas_QMH101,,GenWind,,GenWind,
date,time,status,PA,status,PR,status,RH,status,SR,status,TA,status,DirAvg,status,SpdAvg,
2008-06-06, 00:00:04,VALID,1002.78,VALID,0,VALID,87.8084,VALID,0,VALID,25.7304,VALID,82,VALID,1.3375,
2008-06-06, 00:01:04,VALID,1002.76,VALID,0,VALID,87.7703,VALID,0,VALID,25.7889,VALID,73,VALID,1.44922,
2008-06-06, 00:02:04,VALID,1002.77,VALID,0,VALID,87.5033,VALID,0,VALID,25.8668,VALID,112,VALID,1.20547,
2008-06-06, 00:03:04,VALID,1002.77,VALID,0,VALID,87.1523,VALID,0,VALID,25.9252,VALID,109,VALID,0.757422,
2008-06-06, 00:04:04,VALID,1002.81,VALID,0,VALID,87.1676,VALID,0,VALID,25.9447,VALID,98,VALID,1.13828,
2008-06-06, 00:05:04,VALID,1002.77,VALID,0,VALID,87.1828,VALID,0,VALID,25.9447,VALID,122,VALID,0.735547,
2008-06-06, 00:06:04,VALID,1002.8,VALID,0,VALID,87.1905,VALID,0,VALID,25.9447,VALID,109,VALID,0.614844,
2008-06-06, 00:07:04,VALID,1002.77,VALID,0,VALID,87.2134,VALID,0,VALID,25.9252,VALID,81,VALID,0.986328,
2008-06-06, 00:08:04,VALID,1002.76,VALID,0,VALID,87.2515,VALID,0,VALID,25.9252,VALID,70,VALID,0.387109,
2008-06-06, 00:09:04,VALID,1002.77,VALID,0,VALID,87.2973,VALID,0,VALID,25.9057,VALID,63,VALID,0.850781,
2008-06-06, 00:10:05,VALID,1002.78,VALID,0,VALID,87.4804,VALID,0,VALID,25.8668,VALID,74,VALID,0.725391,
2008-06-06, 00:11:05,VALID,1002.79,VALID,0,VALID,87.5872,VALID,0,VALID,25.8882,VALID,46,VALID,0.572266,
2008-06-06, 00:12:05,VALID,1002.79,VALID,0,VALID,87.5643,VALID,0,VALID,25.8668,VALID,8,VALID,0.58125,
2008-06-06, 00:13:05,VALID,1002.79,VALID,0,VALID,87.6406,VALID,0,VALID,25.8473,VALID,49,VALID,0.465625,
2008-06-06, 00:14:05,VALID,1002.8,VALID,0,VALID,87.7626,VALID,0,VALID,25.7869,VALID,60,VALID,0.856641,
2008-06-06, 00:15:05,VALID,1002.8,VALID,0,VALID,87.9457,VALID,0,VALID,25.7694,VALID,25,VALID,0.824609,
2008-06-06, 00:16:05,VALID,1002.78,VALID,0,VALID,88.1365,VALID,0,VALID,25.7694,VALID,40,VALID,1.33438,
2008-06-06, 00:17:04,VALID,1002.78,VALID,0,VALID,88.2585,VALID,0,VALID,25.7499,VALID,355,VALID,0.814453,
2008-06-06, 00:18:05,VALID,1002.78,VALID,0,VALID,88.1365,VALID,0,VALID,25.7304,VALID,346,VALID,0.821484,
2008-06-06, 00:19:05,VALID,1002.79,VALID,0,VALID,88.3958,VALID,0,VALID,25.67,VALID,356,VALID,0.736719,
2008-06-06, 00:20:05,VALID,1002.8,VALID,0,VALID,88.5637,VALID,0,VALID,25.6525,VALID,1,VALID,0.508984,
2008-06-06, 00:21:05,VALID,1002.8,VALID,0,VALID,88.7162,VALID,0,VALID,25.633,VALID,71,VALID,0.526563,
2008-06-06, 00:22:05,VALID,1002.78,VALID,0,VALID,88.4035,VALID,0,VALID,25.5941,VALID,39,VALID,1.60039,
2008-06-06, 00:23:05,VALID,1002.79,VALID,0,VALID,88.5484,VALID,0,VALID,25.6739,VALID,87,VALID,0.778125,
2008-06-06, 00:24:05,VALID,1002.76,VALID,0,VALID,88.0831,VALID,0,VALID,25.7109,VALID,74,VALID,1.01055,
2008-06-06, 00:25:05,VALID,1002.73,VALID,0,VALID,87.8771,VALID,0,VALID,25.7713,VALID,27,VALID,1.06602,
2008-06-06, 00:26:05,VALID,1002.68,VALID,0,VALID,87.694,VALID,0,VALID,25.7499,VALID,21,VALID,1.66875,
2008-06-06, 00:27:05,VALID,1002.67,VALID,0,VALID,87.6024,VALID,0,VALID,25.7694,VALID,10,VALID,1.40156,
2008-06-06, 00:28:05,VALID,1002.66,VALID,0,VALID,87.7932,VALID,0,VALID,25.8493,VALID,32,VALID,0.571484,
2008-06-06, 00:29:05,VALID,1002.62,VALID,0,VALID,87.6024,VALID,0,VALID,25.8473,VALID,59,VALID,1.36797,
2008-06-06, 00:30:05,VALID,1002.58,VALID,0,VALID,87.5414,VALID,0,VALID,25.8863,VALID,75,VALID,0.977734,
2008-06-06, 00:31:05,VALID,1002.53,VALID,0,VALID,87.4804,VALID,0,VALID,25.8863,VALID,66,VALID,0.60625,
2008-06-06, 00:32:05,VALID,1002.54,VALID,0,VALID,87.488,VALID,0,VALID,25.8668,VALID,78,VALID,0.396094,
2008-06-06, 00:33:05,VALID,1002.57,VALID,0,VALID,87.6787,VALID,0.100563,VALID,25.8473,VALID,27,VALID,0.816016,
2008-06-06, 00:34:05,VALID,1002.59,VALID,0,VALID,87.8313,VALID,0.100563,VALID,25.7869,VALID,19,VALID,1.1375,
2008-06-06, 00:35:05,VALID,1002.59,VALID,0,VALID,88.022,VALID,0.100563,VALID,25.7889,VALID,71,VALID,1.22227,
2008-06-06, 00:36:05,VALID,1002.57,VALID,0,VALID,88.1136,VALID,0,VALID,25.748,VALID,17,VALID,1.17109,
2008-06-06, 00:37:05,VALID,1002.59,VALID,0,VALID,88.3119,VALID,0.100563,VALID,25.7285,VALID,66,VALID,1.07969,
2008-06-06, 00:38:05,VALID,1002.57,VALID,0,VALID,88.4874,VALID,0.100563,VALID,25.6895,VALID,77,VALID,0.516797,
2008-06-06, 00:39:05,VALID,1002.54,VALID,0,VALID,88.8002,VALID,0.100563,VALID,25.67,VALID,80,VALID,1.8043,
2008-06-06, 00:40:05,VALID,1002.53,VALID,0,VALID,88.8536,VALID,0,VALID,25.7109,VALID,36,VALID,0.894531,
2008-06-06, 00:41:05,VALID,1002.51,VALID,0,VALID,89.0519,VALID,0,VALID,25.67,VALID,16,VALID,2.00664,
2008-06-06, 00:42:05,VALID,1002.55,VALID,0,VALID,89.0138,VALID,0.100563,VALID,25.6895,VALID,62,VALID,0.845312,
2008-06-06, 00:43:05,VALID,1002.57,VALID,0,VALID,89.0061,VALID,0.100563,VALID,25.6895,VALID,41,VALID,0.51875,
2008-06-06, 00:44:05,VALID,1002.56,VALID,0,VALID,89.1511,VALID,0,VALID,25.67,VALID,59,VALID,1.05352,
2008-06-06, 00:45:05,VALID,1002.56,VALID,0,VALID,89.1282,VALID,0.100563,VALID,25.67,VALID,31,VALID,0.663672,
2008-06-06, 00:46:05,VALID,1002.56,VALID,0,VALID,89.1969,VALID,0.100563,VALID,25.6506,VALID,58,VALID,0.598047,
2008-06-06, 00:47:05,VALID,1002.58,VALID,0,VALID,89.2274,VALID,0.100563,VALID,25.672,VALID,47,VALID,1.06406,
2008-06-06, 00:48:05,VALID,1002.64,VALID,0,VALID,89.2884,VALID,0.100563,VALID,25.6311,VALID,43,VALID,0.856641,
2008-06-06, 00:49:05,VALID,1002.65,VALID,0,VALID,89.3571,VALID,0.100563,VALID,25.672,VALID,83,VALID,0.997656,
2008-06-06, 00:50:05,VALID,1002.66,VALID,0,VALID,89.3723,VALID,0.100563,VALID,25.6311,VALID,23,VALID,1.23125,
2008-06-06, 00:51:05,VALID,1002.65,VALID,0,VALID,89.502,VALID,0.100563,VALID,25.6116,VALID,30,VALID,1.03984,
2008-06-06, 00:52:05,VALID,1002.64,VALID,0,VALID,89.5631,VALID,0.100563,VALID,25.6116,VALID,49,VALID,0.594141,
2008-06-06, 00:53:05,VALID,1002.64,VALID,0,VALID,89.5783,VALID,0.100563,VALID,25.5921,VALID,33,VALID,0.461719,
2008-06-06, 00:54:05,VALID,1002.58,VALID,0,VALID,89.7309,VALID,0,VALID,25.6116,VALID,83,VALID,1.84766,
2008-06-06, 00:55:05,VALID,1002.56,VALID,0,VALID,89.7004,VALID,0.100563,VALID,25.6116,VALID,36,VALID,0.609766,
2008-06-06, 00:56:05,VALID,1002.5,VALID,0,VALID,89.7309,VALID,0.100563,VALID,25.6116,VALID,75,VALID,0.441797,
2008-06-06, 00:57:05,VALID,1002.44,VALID,0,VALID,89.7614,VALID,0.100563,VALID,25.6311,VALID,74,VALID,0.0984375,
2008-06-06, 00:58:05,VALID,1002.41,VALID,0,VALID,89.7538,VALID,0.100563,VALID,25.6097,VALID,35,VALID,1.10703,
2008-06-06, 00:59:05,VALID,1002.44,VALID,0,VALID,89.7004,VALID,0.100563,VALID,25.6506,VALID,56,VALID,0.573047,
2008-06-06, 01:00:05,VALID,1002.46,VALID,0,VALID,89.6241,VALID,0.100563,VALID,25.6311,VALID,54,VALID,0.748438,
2008-06-06, 01:01:05,VALID,1002.5,VALID,0,VALID,89.7233,VALID,0.100563,VALID,25.6116,VALID,35,VALID,0.315234,
2008-06-06, 01:02:05,VALID,1002.71,VALID,0,VALID,89.9826,VALID,0.100563,VALID,25.6116,VALID,92,VALID,1.87812,
2008-06-06, 01:03:05,VALID,1002.77,VALID,0,VALID,88.1822,VALID,0,VALID,25.6525,VALID,135,VALID,3.54961,
2008-06-06, 01:04:05,VALID,1003.11,VALID,0.5,VALID,86.275,VALID,0,VALID,25.187,VALID,94,VALID,5.67344,
2008-06-06, 01:05:05,VALID,1003.19,VALID,0.5,VALID,89.0061,VALID,0,VALID,24.5814,VALID,95,VALID,2.46484,
2008-06-06, 01:06:05,VALID,1003.04,VALID,1.5,VALID,89.9521,VALID,0,VALID,24.1355,VALID,94,VALID,4.82383,
2008-06-06, 01:07:05,VALID,1003.09,VALID,1,VALID,91.6229,VALID,0,VALID,23.8239,VALID,105,VALID,2.98398,
2008-06-06, 01:08:05,VALID,1003.02,VALID,0.5,VALID,92.6222,VALID,0,VALID,23.6275,VALID,77,VALID,3.48047,
2008-06-06, 01:09:05,VALID,1003.01,VALID,0,VALID,92.8587,VALID,0,VALID,23.4912,VALID,103,VALID,3.99375,
2008-06-06, 01:10:05,VALID,1002.94,VALID,0,VALID,93.2097,VALID,0,VALID,23.4134,VALID,57,VALID,3.71875,
2008-06-06, 01:11:05,VALID,1002.96,VALID,0,VALID,93.3546,VALID,0,VALID,23.4151,VALID,94,VALID,3.92891,
2008-06-06, 01:12:05,VALID,1002.93,VALID,0,VALID,93.4919,VALID,0,VALID,23.3762,VALID,62,VALID,4.50898,
2008-06-06, 01:13:05,VALID,1002.81,VALID,0.5,VALID,93.3622,VALID,0,VALID,23.3355,VALID,129,VALID,2.99219,
2008-06-06, 01:14:05,VALID,1002.76,VALID,0,VALID,93.5148,VALID,0,VALID,23.3178,VALID,114,VALID,3.87539,
2008-06-06, 01:15:05,VALID,1002.74,VALID,0,VALID,93.5758,VALID,0,VALID,23.2771,VALID,98,VALID,2.67422,
2008-06-06, 01:16:05,VALID,1002.81,VALID,0,VALID,93.8581,VALID,0,VALID,23.2382,VALID,81,VALID,1.52266,
2008-06-06, 01:17:05,VALID,1002.7,VALID,0,VALID,93.8657,VALID,0,VALID,23.2789,VALID,119,VALID,3.3707,
2008-06-06, 01:18:05,VALID,1002.65,VALID,0,VALID,93.9115,VALID,0.100563,VALID,23.2559,VALID,98,VALID,2.83945,
2008-06-06, 01:19:05,VALID,1002.69,VALID,0,VALID,94.0259,VALID,0.100563,VALID,23.2559,VALID,88,VALID,1.0668,
2008-06-06, 01:20:05,VALID,1002.6,VALID,0,VALID,94.1022,VALID,0,VALID,23.2559,VALID,39,VALID,1.66953,
2008-06-06, 01:21:05,VALID,1002.57,VALID,0.5,VALID,94.2396,VALID,0.100563,VALID,23.2754,VALID,55,VALID,1.39883,
2008-06-06, 01:22:05,VALID,1002.53,VALID,0,VALID,94.4379,VALID,0.100563,VALID,23.2736,VALID,42,VALID,1.52188,
2008-06-06, 01:23:05,VALID,1002.48,VALID,0.5,VALID,94.5371,VALID,0.100563,VALID,23.2754,VALID,76,VALID,1.70117,
2008-06-06, 01:24:05,VALID,1002.39,VALID,0.5,VALID,94.6363,VALID,0.100563,VALID,23.2541,VALID,58,VALID,1.84141,
2008-06-06, 01:25:05,VALID,1002.31,VALID,0,VALID,94.7049,VALID,0,VALID,23.2983,VALID,4,VALID,2.07227,
2008-06-06, 01:26:05,VALID,1002.33,VALID,0,VALID,94.621,VALID,0,VALID,23.2754,VALID,52,VALID,1.79297,
2008-06-06, 01:27:05,VALID,1002.24,VALID,0.5,VALID,94.6515,VALID,0,VALID,23.2754,VALID,14,VALID,1.59375,
2008-06-06, 01:28:05,VALID,1002.26,VALID,0,VALID,94.6134,VALID,0,VALID,23.316,VALID,20,VALID,1.93242,
2008-06-06, 01:29:05,VALID,1002.28,VALID,0,VALID,94.7125,VALID,0,VALID,23.2966,VALID,58,VALID,1.7793,
2008-06-06, 01:30:05,VALID,1002.3,VALID,0,VALID,94.7507,VALID,0,VALID,23.2948,VALID,5,VALID,0.985547,
2008-06-06, 01:31:05,VALID,1002.31,VALID,0,VALID,94.8804,VALID,0,VALID,23.2948,VALID,39,VALID,1.02969,
2008-06-06, 01:32:05,VALID,1002.24,VALID,0,VALID,94.5752,VALID,0,VALID,23.2771,VALID,45,VALID,1.76133,
2008-06-06, 01:33:05,VALID,1002.26,VALID,0,VALID,94.4074,VALID,0,VALID,23.2382,VALID,353,VALID,1.66562,
2008-06-06, 01:34:05,VALID,1002.26,VALID,0,VALID,94.415,VALID,0,VALID,23.1975,VALID,88,VALID,1.18047,
2008-06-06, 01:35:05,VALID,1002.23,VALID,0.5,VALID,94.5066,VALID,0,VALID,23.217,VALID,20,VALID,1.13867,
2008-06-06, 01:36:05,VALID,1002.17,VALID,0,VALID,94.5447,VALID,0,VALID,23.1975,VALID,2,VALID,0.45,
2008-06-06, 01:37:05,VALID,1002.15,VALID,0,VALID,94.4913,VALID,0,VALID,23.178,VALID,45,VALID,1.52813,
2008-06-06, 01:38:05,VALID,1002.18,VALID,0,VALID,94.5752,VALID,0,VALID,23.1993,VALID,39,VALID,0.734375,
2008-06-06, 01:39:05,VALID,1002.19,VALID,0,VALID,94.4989,VALID,0,VALID,23.178,VALID,16,VALID,1.40859,
2008-06-06, 01:40:05,VALID,1002.21,VALID,0,VALID,94.4608,VALID,0,VALID,23.1798,VALID,66,VALID,1.40859,
2008-06-06, 01:41:05,VALID,1002.18,VALID,0,VALID,94.4684,VALID,0,VALID,23.1993,VALID,58,VALID,1.37656,
2008-06-06, 01:42:05,VALID,1002.19,VALID,0,VALID,94.4989,VALID,0,VALID,23.178,VALID,41,VALID,0.991797,
2008-06-06, 01:43:05,VALID,1002.22,VALID,0,VALID,94.3921,VALID,0,VALID,23.1993,VALID,51,VALID,0.898438,
2008-06-06, 01:44:05,VALID,1002.22,VALID,0,VALID,94.4074,VALID,0,VALID,23.178,VALID,5,VALID,1.36055,
2008-06-06, 01:45:05,VALID,1002.26,VALID,0,VALID,94.2777,VALID,0,VALID,23.1975,VALID,42,VALID,0.855469,
2008-06-06, 01:46:05,VALID,1002.25,VALID,0,VALID,94.3082,VALID,0,VALID,23.2187,VALID,42,VALID,0.937109,
2008-06-06, 01:47:05,VALID,1002.21,VALID,0,VALID,94.3692,VALID,0,VALID,23.178,VALID,13,VALID,1.18984,
2008-06-06, 01:48:05,VALID,1002.22,VALID,0,VALID,94.4227,VALID,0,VALID,23.178,VALID,16,VALID,0.927344,
2008-06-06, 01:49:05,VALID,1002.24,VALID,0,VALID,94.3235,VALID,0,VALID,23.1993,VALID,80,VALID,1.39336,
2008-06-06, 01:50:05,VALID,1002.24,VALID,0,VALID,94.293,VALID,0,VALID,23.1993,VALID,82,VALID,1.68633,
2008-06-06, 01:51:05,VALID,1002.24,VALID,0,VALID,94.293,VALID,0,VALID,23.1993,VALID,42,VALID,0.941406,
2008-06-06, 01:52:05,VALID,1002.22,VALID,0,VALID,94.3692,VALID,0,VALID,23.1798,VALID,64,VALID,0.763281,
2008-06-06, 01:53:05,VALID,1002.22,VALID,0.5,VALID,94.4303,VALID,0,VALID,23.1586,VALID,48,VALID,0.800781,
2008-06-06, 01:54:05,VALID,1002.19,VALID,0,VALID,94.3387,VALID,0,VALID,23.1603,VALID,33,VALID,1.68398,
2008-06-06, 01:55:05,VALID,1002.19,VALID,0,VALID,94.415,VALID,0,VALID,23.1603,VALID,84,VALID,1.06992,
2008-06-06, 01:56:05,VALID,1002.19,VALID,0,VALID,94.4379,VALID,0,VALID,23.1603,VALID,77,VALID,0.988281,
2008-06-06, 01:57:05,VALID,1002.18,VALID,0,VALID,94.4684,VALID,0,VALID,23.1603,VALID,61,VALID,1.55117,
2008-06-06, 01:58:05,VALID,1002.18,VALID,0,VALID,94.4989,VALID,0,VALID,23.1603,VALID,55,VALID,0.855859,
2008-06-06, 01:59:05,VALID,1002.17,VALID,0,VALID,94.5752,VALID,0,VALID,23.1197,VALID,35,VALID,0.833594,
2008-06-06, 02:00:05,VALID,1002.16,VALID,0,VALID,94.5829,VALID,0,VALID,23.1197,VALID,90,VALID,0.952734,
2008-06-06, 02:01:05,VALID,1002.14,VALID,0,VALID,94.6591,VALID,0,VALID,23.1409,VALID,59,VALID,0.645703,
2008-06-06, 02:02:05,VALID,1002.12,VALID,0,VALID,94.6439,VALID,0,VALID,23.1002,VALID,43,VALID,0.477734,
2008-06-06, 02:03:05,VALID,1002.09,VALID,0,VALID,94.6973,VALID,0,VALID,23.1002,VALID,70,VALID,0.933203,
2008-06-06, 02:04:05,VALID,1002.09,VALID,0,VALID,94.7354,VALID,0,VALID,23.1002,VALID,22,VALID,0.777344,
2008-06-06, 02:05:05,VALID,1002.08,VALID,0,VALID,94.6668,VALID,0,VALID,23.1002,VALID,31,VALID,1.05039,
2008-06-06, 02:06:05,VALID,1002.06,VALID,0,VALID,94.7812,VALID,0,VALID,23.1214,VALID,39,VALID,0.679688,
2008-06-06, 02:07:05,VALID,1002.06,VALID,0,VALID,94.7202,VALID,0,VALID,23.1214,VALID,14,VALID,0.678516,
2008-06-06, 02:08:05,VALID,1002.06,VALID,0,VALID,94.7888,VALID,0,VALID,23.1002,VALID,34,VALID,0.471484,
2008-06-06, 02:09:05,VALID,1002.02,VALID,0,VALID,94.8041,VALID,0,VALID,23.1214,VALID,39,VALID,0.334375,
2008-06-06, 02:10:05,VALID,1001.98,VALID,0,VALID,94.7431,VALID,0,VALID,23.1019,VALID,31,VALID,1.02188,
2008-06-06, 02:11:05,VALID,1001.99,VALID,0,VALID,94.766,VALID,0,VALID,23.0807,VALID,48,VALID,0.532031,
2008-06-06, 02:12:05,VALID,1001.98,VALID,0,VALID,94.7736,VALID,0,VALID,23.1002,VALID,12,VALID,1.09219,
2008-06-06, 02:13:05,VALID,1001.96,VALID,0,VALID,94.7965,VALID,0,VALID,23.1214,VALID,75,VALID,0.646875,
2008-06-06, 02:14:05,VALID,1001.94,VALID,0,VALID,94.7965,VALID,0,VALID,23.1214,VALID,23,VALID,0.164063,
2008-06-06, 02:15:05,VALID,1001.88,VALID,0,VALID,94.8575,VALID,0,VALID,23.1214,VALID,23,VALID,0.135937,
2008-06-06, 02:16:05,VALID,1001.85,VALID,0,VALID,94.8804,VALID,0,VALID,23.1002,VALID,24,VALID,0.217578,
2008-06-06, 02:17:05,VALID,1001.9,VALID,0,VALID,94.888,VALID,0,VALID,23.0807,VALID,23,VALID,0.370703,
2008-06-06, 02:18:05,VALID,1001.89,VALID,0,VALID,94.9643,VALID,0,VALID,23.0613,VALID,23,VALID,0.272266,
2008-06-06, 02:19:05,VALID,1001.85,VALID,0,VALID,95.0482,VALID,0,VALID,23.1019,VALID,21,VALID,0.303125,
2008-06-06, 02:20:05,VALID,1001.88,VALID,0,VALID,95.0177,VALID,0,VALID,23.0401,VALID,61,VALID,0.538672,
2008-06-06, 02:21:05,VALID,1001.84,VALID,0,VALID,95.0253,VALID,0,VALID,23.0807,VALID,98,VALID,0.491797,
2008-06-06, 02:22:05,VALID,1001.84,VALID,0,VALID,94.8956,VALID,0,VALID,23.0807,VALID,24,VALID,1.46758,
2008-06-06, 02:23:05,VALID,1001.83,VALID,0,VALID,94.8499,VALID,0,VALID,23.1002,VALID,23,VALID,1.30586,
2008-06-06, 02:24:05,VALID,1001.83,VALID,0,VALID,94.8041,VALID,0,VALID,23.1409,VALID,44,VALID,0.960156,
2008-06-06, 02:25:05,VALID,1001.83,VALID,0,VALID,94.7583,VALID,0,VALID,23.1603,VALID,52,VALID,0.686328,
2008-06-06, 02:26:05,VALID,1001.85,VALID,0,VALID,94.7202,VALID,0,VALID,23.1603,VALID,31,VALID,1.05352,
2008-06-06, 02:27:05,VALID,1001.82,VALID,0,VALID,94.682,VALID,0,VALID,23.1993,VALID,24,VALID,1.0625,
2008-06-06, 02:28:05,VALID,1001.78,VALID,0,VALID,94.5142,VALID,0,VALID,23.1798,VALID,5,VALID,1.4207,
2008-06-06, 02:29:05,VALID,1001.81,VALID,0,VALID,94.4227,VALID,0,VALID,23.217,VALID,54,VALID,0.749219,
2008-06-06, 02:30:05,VALID,1001.79,VALID,0,VALID,94.415,VALID,0,VALID,23.2382,VALID,15,VALID,0.724219,
2008-06-06, 02:31:05,VALID,1001.78,VALID,0,VALID,94.4227,VALID,0,VALID,23.2382,VALID,27,VALID,0.831641,
2008-06-06, 02:32:05,VALID,1001.76,VALID,0,VALID,94.4227,VALID,0,VALID,23.2559,VALID,358,VALID,0.683203,
2008-06-06, 02:33:05,VALID,1001.76,VALID,0,VALID,94.3921,VALID,0,VALID,23.2382,VALID,23,VALID,0.807422,
2008-06-06, 02:34:05,VALID,1001.77,VALID,0,VALID,94.3845,VALID,0,VALID,23.2382,VALID,1,VALID,0.551562,
2008-06-06, 02:35:05,VALID,1001.77,VALID,0,VALID,94.3616,VALID,0,VALID,23.2577,VALID,22,VALID,0.597266,
2008-06-06, 02:36:05,VALID,1001.77,VALID,0,VALID,94.3845,VALID,0,VALID,23.2983,VALID,3,VALID,0.665234,
2008-06-06, 02:37:05,VALID,1001.78,VALID,0,VALID,94.4227,VALID,0,VALID,23.2577,VALID,360,VALID,0.647266,
2008-06-06, 02:38:05,VALID,1001.75,VALID,0,VALID,94.4074,VALID,0,VALID,23.2577,VALID,356,VALID,0.751562,
2008-06-06, 02:39:05,VALID,1001.76,VALID,0,VALID,94.4379,VALID,0,VALID,23.2771,VALID,37,VALID,0.526563,
2008-06-06, 02:40:05,VALID,1001.77,VALID,0,VALID,94.4455,VALID,0,VALID,23.2789,VALID,33,VALID,0.662109,
2008-06-06, 02:41:05,VALID,1001.77,VALID,0,VALID,94.4532,VALID,0,VALID,23.2771,VALID,355,VALID,0.566406,
2008-06-06, 02:42:05,VALID,1001.76,VALID,0,VALID,94.4684,VALID,0,VALID,23.2559,VALID,33,VALID,0.428125,
2008-06-06, 02:43:05,VALID,1001.76,VALID,0,VALID,94.4455,VALID,0,VALID,23.2983,VALID,35,VALID,0.310937,
2008-06-06, 02:44:05,VALID,1001.77,VALID,0,VALID,94.4455,VALID,0,VALID,23.2771,VALID,55,VALID,0.361328,
2008-06-06, 02:45:05,VALID,1001.78,VALID,0,VALID,94.4761,VALID,0,VALID,23.2771,VALID,85,VALID,0.283203,
2008-06-06, 02:46:05,VALID,1001.8,VALID,0,VALID,94.5295,VALID,0,VALID,23.2771,VALID,85,VALID,0.285156,
2008-06-06, 02:47:05,VALID,1001.79,VALID,0,VALID,94.5295,VALID,0,VALID,23.2771,VALID,87,VALID,0.487891,
2008-06-06, 02:48:05,VALID,1001.84,VALID,0,VALID,94.5752,VALID,0,VALID,23.2771,VALID,92,VALID,0.453125,
2008-06-06, 02:49:05,VALID,1001.87,VALID,0,VALID,94.6668,VALID,0,VALID,23.2559,VALID,92,VALID,0.333594,
2008-06-06, 02:50:04,VALID,1001.84,VALID,0,VALID,94.6897,VALID,0,VALID,23.2966,VALID,92,VALID,0.325,
2008-06-06, 02:51:04,VALID,1001.83,VALID,0,VALID,94.6286,VALID,0,VALID,23.2983,VALID,102,VALID,0.4875,
2008-06-06, 02:52:04,VALID,1001.87,VALID,0,VALID,94.6515,VALID,0,VALID,23.2789,VALID,89,VALID,0.100781,
2008-06-06, 02:53:04,VALID,1001.86,VALID,0.5,VALID,94.6057,VALID,0,VALID,23.2577,VALID,100,VALID,1.35898,
2008-06-06, 02:54:04,VALID,1001.92,VALID,0,VALID,94.6439,VALID,0,VALID,23.2789,VALID,89,VALID,0.846875,
2008-06-06, 02:55:04,VALID,1001.88,VALID,0,VALID,94.6515,VALID,0,VALID,23.2577,VALID,81,VALID,0.366797,
2008-06-06, 02:56:04,VALID,1001.9,VALID,0,VALID,94.6591,VALID,0,VALID,23.2577,VALID,92,VALID,0.610547,
2008-06-06, 02:57:04,VALID,1001.95,VALID,0,VALID,94.682,VALID,0,VALID,23.2577,VALID,73,VALID,0.784766,
2008-06-06, 02:58:04,VALID,1001.97,VALID,0,VALID,94.7049,VALID,0,VALID,23.2577,VALID,99,VALID,1.02578,
2008-06-06, 02:59:04,VALID,1001.94,VALID,0,VALID,94.766,VALID,0,VALID,23.2789,VALID,70,VALID,0.8125,
2008-06-06, 03:00:04,VALID,1001.95,VALID,0,VALID,94.7965,VALID,0,VALID,23.2577,VALID,76,VALID,0.489844,
2008-06-06, 03:01:04,VALID,1001.94,VALID,0,VALID,94.8041,VALID,0,VALID,23.2577,VALID,77,VALID,0.507813,
2008-06-06, 03:02:04,VALID,1001.93,VALID,0,VALID,94.8728,VALID,0,VALID,23.2364,VALID,91,VALID,0.815234,
2008-06-06, 03:03:04,VALID,1001.94,VALID,0,VALID,94.9262,VALID,0,VALID,23.2559,VALID,46,VALID,0.428906,
2008-06-06, 03:04:04,VALID,1001.96,VALID,0,VALID,94.9262,VALID,0.100563,VALID,23.2771,VALID,69,VALID,0.791406,
2008-06-06, 03:05:04,VALID,1001.96,VALID,0,VALID,95.0177,VALID,0.100563,VALID,23.2736,VALID,36,VALID,0.498047,
2008-06-06, 03:06:04,VALID,1001.97,VALID,0,VALID,95.033,VALID,0.100563,VALID,23.2948,VALID,53,VALID,0.939844,
2008-06-06, 03:07:04,VALID,1001.99,VALID,0,VALID,95.0177,VALID,0,VALID,23.3143,VALID,54,VALID,0.820703,
2008-06-06, 03:08:04,VALID,1002,VALID,0,VALID,95.0101,VALID,0,VALID,23.355,VALID,11,VALID,0.288672,
2008-06-06, 03:09:04,VALID,1002,VALID,0,VALID,94.9948,VALID,0,VALID,23.3337,VALID,93,VALID,0.336328,
2008-06-06, 03:10:04,VALID,1002.01,VALID,0,VALID,94.9796,VALID,0.100563,VALID,23.3337,VALID,42,VALID,0.754297,
2008-06-06, 03:11:04,VALID,1002.01,VALID,0,VALID,94.9185,VALID,0,VALID,23.3532,VALID,79,VALID,0.594922,
2008-06-06, 03:12:04,VALID,1002,VALID,0,VALID,94.9338,VALID,0,VALID,23.3744,VALID,74,VALID,0.308203,
2008-06-06, 03:13:04,VALID,1002.03,VALID,0,VALID,94.9414,VALID,0,VALID,23.3337,VALID,29,VALID,0.795703,
2008-06-06, 03:14:04,VALID,1002.02,VALID,0,VALID,94.9872,VALID,0,VALID,23.3744,VALID,38,VALID,0.275391,
2008-06-06, 03:15:04,VALID,1002.02,VALID,0,VALID,94.9719,VALID,0.100563,VALID,23.3337,VALID,27,VALID,0.596094,
2008-06-06, 03:16:04,VALID,1002.05,VALID,0,VALID,94.9796,VALID,0,VALID,23.3532,VALID,4,VALID,0.890234,
2008-06-06, 03:17:04,VALID,1002.04,VALID,0,VALID,95.0177,VALID,0,VALID,23.3727,VALID,26,VALID,0.447656,
2008-06-06, 03:18:04,VALID,1002.07,VALID,0,VALID,95.0406,VALID,0.100563,VALID,23.3921,VALID,29,VALID,0.336719,
2008-06-06, 03:19:04,VALID,1002.06,VALID,0,VALID,95.0253,VALID,0.100563,VALID,23.3939,VALID,12,VALID,0.916016,
2008-06-06, 03:20:04,VALID,1002.05,VALID,0,VALID,95.0635,VALID,0.100563,VALID,23.3921,VALID,27,VALID,0.986719,
2008-06-06, 03:21:04,VALID,1002.06,VALID,0,VALID,95.0406,VALID,0,VALID,23.4116,VALID,27,VALID,0.776953,
2008-06-06, 03:22:04,VALID,1002.06,VALID,0,VALID,95.0177,VALID,0,VALID,23.4116,VALID,356,VALID,0.623438,
2008-06-06, 03:23:04,VALID,1002.02,VALID,0,VALID,94.9643,VALID,0,VALID,23.4311,VALID,28,VALID,0.248047,
2008-06-06, 03:24:04,VALID,1002.06,VALID,0,VALID,94.9185,VALID,0,VALID,23.4718,VALID,22,VALID,0.784375,
2008-06-06, 03:25:04,VALID,1002.06,VALID,0,VALID,94.9719,VALID,0,VALID,23.47,VALID,10,VALID,0.614453,
2008-06-06, 03:26:04,VALID,1002.06,VALID,0,VALID,94.9719,VALID,0,VALID,23.4912,VALID,10,VALID,0.702734,
2008-06-06, 03:27:04,VALID,1002.1,VALID,0,VALID,95.0177,VALID,0,VALID,23.5107,VALID,26,VALID,0.344531,
2008-06-06, 03:28:04,VALID,1002.13,VALID,0,VALID,94.9719,VALID,0,VALID,23.4894,VALID,29,VALID,0.378125,
2008-06-06, 03:29:04,VALID,1002.11,VALID,0,VALID,94.9567,VALID,0,VALID,23.47,VALID,35,VALID,0.161328,
2008-06-06, 03:30:04,VALID,1002.12,VALID,0,VALID,95.0101,VALID,0,VALID,23.4894,VALID,6,VALID,0.699609,
2008-06-06, 03:31:04,VALID,1002.13,VALID,0,VALID,95.0787,VALID,0,VALID,23.5089,VALID,16,VALID,0.735156,
2008-06-06, 03:32:04,VALID,1002.11,VALID,0,VALID,95.0406,VALID,0,VALID,23.5284,VALID,18,VALID,0.498437,
2008-06-06, 03:33:04,VALID,1002.13,VALID,0,VALID,95.0558,VALID,0,VALID,23.5478,VALID,30,VALID,0.330859,
2008-06-06, 03:34:04,VALID,1002.13,VALID,0,VALID,95.1245,VALID,0,VALID,23.5673,VALID,59,VALID,0.798047,
2008-06-06, 03:35:04,VALID,1002.16,VALID,0,VALID,95.1016,VALID,0.100563,VALID,23.6062,VALID,59,VALID,0.608594,
2008-06-06, 03:36:04,VALID,1002.16,VALID,0,VALID,95.0864,VALID,0,VALID,23.6257,VALID,344,VALID,0.623047,
2008-06-06, 03:37:04,VALID,1002.21,VALID,0,VALID,95.0635,VALID,0.100563,VALID,23.6452,VALID,40,VALID,0.603906,
2008-06-06, 03:38:04,VALID,1002.18,VALID,0,VALID,95.0024,VALID,0.100563,VALID,23.6664,VALID,14,VALID,0.382031,
2008-06-06, 03:39:04,VALID,1002.16,VALID,0,VALID,95.0101,VALID,0,VALID,23.7053,VALID,7,VALID,0.348047,
2008-06-06, 03:40:04,VALID,1002.19,VALID,0,VALID,94.9719,VALID,0,VALID,23.7035,VALID,35,VALID,0.867969,
2008-06-06, 03:41:04,VALID,1002.16,VALID,0,VALID,94.9414,VALID,0,VALID,23.7248,VALID,18,VALID,0.805859,
2008-06-06, 03:42:04,VALID,1002.12,VALID,0,VALID,94.9033,VALID,0,VALID,23.7443,VALID,354,VALID,0.628906,
2008-06-06, 03:43:04,VALID,1002.14,VALID,0,VALID,94.8956,VALID,0,VALID,23.7425,VALID,12,VALID,0.433594,
2008-06-06, 03:44:04,VALID,1002.15,VALID,0,VALID,94.9033,VALID,0,VALID,23.7425,VALID,22,VALID,0.937109,